Home   Weather   Sioux Falls   Past weeks

Flag for USA Past Weather in Sioux Falls, South Dakota, USA — Yesterday and Last 2 Weeks

Now
9 °F

Clear.


Feels Like: -11 °F
Forecast: 7 / 14 °F
Wind: 22 mph from Northwest

Location: Foss Field

Current Time: Dec 7, 2016 at 4:47:35 am

Latest Report: Dec 7, 2016 at 3:56 am


Visibility: 10 mi

Pressure: 30.20 "Hg

Humidity: 76%

Dew Point: 3 °F

Location of Sioux FallsLocation

Past Weather in Sioux Falls — Graph

°F

Sioux Falls Temperature Yesterday

Maximum temperature yesterday: 22 °F (at 12:56 pm)
Minimum temperature yesterday: 12 °F (at 9:56 pm)
Average temperature yesterday: 17 °F

High & Low Weather Summary for the Past Weeks

 TemperatureHumidityPressure
High50 °F (Nov 27, 9:56 pm)100% (Nov 22, 10:56 am)30.36 "Hg (Nov 22, 10:56 am)
Low10 °F (Dec 7, 2:56 am)59% (Nov 25, 1:56 pm)28.93 "Hg (Nov 27, 11:56 pm)
Average33 °F88%29.88 "Hg
* Reported Nov 22 2:56 am — Dec 7 2:56 am, Sioux Falls, Weather by CustomWeather, © 2016

Note: Actual official high and low records may vary slightly from our data, if they occured in-between our weather recording intervals... More about our weather records

Advertising

Sioux Falls Weather History for the Previous 24 Hours

Scroll right to see more
 ConditionsComfort  
Time TempWeatherWind HumidityBarometerVisibility
2:56 am
Wed, Dec 7
10 °FClear.22 mph73%30.19 "Hg10 mi
1:56 am11 °FClear.24 mph73%30.16 "Hg10 mi
12:56 am11 °FClear.21 mph77%30.14 "Hg10 mi
11:56 pm
Tue, Dec 6
12 °FClear.20 mph77%30.14 "Hg10 mi
10:56 pm12 °FClear.22 mph73%30.12 "Hg10 mi
9:56 pm12 °FClear.20 mph73%30.10 "Hg10 mi
8:56 pm13 °FClear.23 mph70%30.09 "Hg10 mi
8:04 pm14 °FLight snow. Passing clouds.22 mph73%29.99 "Hg9 mi
7:56 pm14 °FLight snow. Passing clouds.23 mph73%30.07 "Hg9 mi
6:56 pm16 °FClear.22 mph74%30.04 "Hg10 mi
5:56 pm17 °FPassing clouds.21 mph70%30.01 "Hg10 mi
4:56 pm18 °FPassing clouds.23 mph71%30.00 "Hg10 mi
3:56 pm21 °FScattered clouds.22 mph65%29.97 "Hg10 mi
2:58 pm22 °FScattered clouds.24 mph62%29.88 "Hg10 mi
1:56 pm22 °FLight snow. Overcast.29 mph62%29.93 "Hg9 mi
12:56 pm22 °FLight snow. Partly sunny.25 mph62%29.93 "Hg9 mi
11:56 am20 °FLight snow. Overcast.26 mph65%29.94 "Hg9 mi
10:56 am21 °FLight snow. Partly sunny.25 mph62%29.94 "Hg9 mi
9:56 am18 °FLight snow. Partly sunny.29 mph68%29.93 "Hg9 mi
8:56 am17 °FLight snow. Overcast.20 mph76%29.92 "Hg6 mi
7:56 am17 °FLight snow. Broken clouds.18 mph80%29.90 "Hg6 mi
6:56 am18 °FLight snow. Overcast.22 mph77%29.90 "Hg5 mi
5:56 am18 °FLight snow. Overcast.18 mph74%29.90 "Hg9 mi
4:56 am16 °FPassing clouds.14 mph77%29.90 "Hg10 mi
Weather by CustomWeather, © 2016

See weather overviewHow to use our weather pages